This is the latest recevied weather packets stored in our database for station/object KE0QIB. If no packets are shown the sender has not sent any weather packets the latest 1 day(s).
| Time | Temp. | Humidity | Pressure | Rain* | Wind** | Luminosity | Snow |
|---|---|---|---|---|---|---|---|
| 1778001712 | 6.11° C | 43% | 1001 hPa | 0 mm | 1.79 m/s, 46° | - | - |
| 1778001412 | 6.11° C | 42% | 1001 hPa | 0 mm | 2.24 m/s, 86° | - | - |
| 1778001112 | 6.67° C | 43% | 1001 hPa | 0 mm | 1.79 m/s, 331° | - | - |
| 1778000812 | 6.67° C | 42% | 1001.3 hPa | 0 mm | 2.24 m/s, 21° | - | - |
| 1778000512 | 6.11° C | 44% | 1001.3 hPa | 0 mm | 1.79 m/s, 69° | - | - |
| 1778000212 | 6.11° C | 45% | 1001.3 hPa | 0 mm | 0.89 m/s, 114° | - | - |
| 1777999912 | 6.11° C | 43% | 1001 hPa | 0 mm | 0.89 m/s, 167° | - | - |
| 1777999612 | 6.11° C | 41% | 1001 hPa | 0 mm | 1.34 m/s, 188° | - | - |
| 1777999312 | 6.11° C | 42% | 1001 hPa | 0 mm | 1.34 m/s, 82° | - | - |
| 1777999013 | 6.11° C | 45% | 1001.3 hPa | 0 mm | 1.34 m/s, 333° | - | - |
| 1777998712 | 5.56° C | 44% | 1001.3 hPa | 0 mm | 1.34 m/s, 159° | - | - |
| 1777998413 | 5.56° C | 44% | 1001.3 hPa | 0 mm | 1.34 m/s, 317° | - | - |
| 1777998113 | 6.11° C | 43% | 1000.8 hPa | 0 mm | 1.34 m/s, 113° | - | - |
| 1777997813 | 6.11° C | 42% | 1000.8 hPa | 0 mm | 1.79 m/s, 312° | - | - |
| 1777997513 | 6.11° C | 43% | 1000.8 hPa | 0 mm | 1.79 m/s, 0° | - | - |
| 1777997213 | 6.11° C | 43% | 1000.8 hPa | 0 mm | 0.89 m/s, 11° | - | - |
| 1777996913 | 5.56° C | 44% | 1000.8 hPa | 0 mm | 0.89 m/s, 173° | - | - |
| 1777996613 | 5.56° C | 44% | 1000.8 hPa | 0 mm | 0.89 m/s, 279° | - | - |
| 1777996313 | 5.56° C | 48% | 1001.1 hPa | 0 mm | 1.34 m/s, 202° | - | - |
| 1777996013 | 5° C | 47% | 1001.1 hPa | 0 mm | 1.34 m/s, 330° | - | - |
| 1777995713 | 5° C | 47% | 1001.1 hPa | 0 mm | 1.34 m/s, 69° | - | - |
| 1777995413 | 5° C | 46% | 1001.1 hPa | 0 mm | 1.34 m/s, 26° | - | - |
| 1777995113 | 5° C | 44% | 1001.1 hPa | 0 mm | 1.34 m/s, 145° | - | - |
| 1777994813 | 5° C | 47% | 1001.1 hPa | 0 mm | 1.34 m/s, 319° | - | - |
| 1777994513 | 5° C | 48% | 1001.3 hPa | 0 mm | 1.34 m/s, 30° | - | - |
* Rain latest hour (hover to see other rain measurements)
** Current wind speed in m/s (hover to see current wind gust speed)